Location: Bletchingley
(51.2333°N, 0.1000°W)
Time: 16:56:13
(UTC+00:00)

USA 186 - Pass Details

Date: 18 September 2020
Orbit: 261 x 425 km, 96.9° (Epoch: 12 October)

Event Time Altitude Azimuth Distance (km) Brightness Sun altitude
Exits shadow 20:20:54 - 213° (SSW) 1,648 4.8 -20.7°
Reaches altitude 10° 20:21:30 10° 220° (SW) 1,452 4.6 -20.8°
Maximum altitude 20:23:49 19° 268° (W) 1,053 4.4 -21.1°
Drops below altitude 10° 20:26:13 10° 316° (NW) 1,509 5.6 -21.5°
Sets 20:28:41 0° 335° (NNW) 2,398 6.5 -21.8°
